Location: Gorze? G�rny
(49.8500°N, 19.5000°E)
Time: 21:13:02
(UTC+00:00)

Cosmos 1674 Rocket - Pass Details

Date: 29 September 2021
Orbit: 601 x 631 km, 82.5° (Epoch: 25 October)

Event Time Altitude Azimuth Distance (km) Brightness Sun altitude
Rises 18:02:10 0° 332° (NNW) 2,876 7.7 -16.4°
Reaches altitude 10° 18:05:32 10° 305° (NW) 1,961 7.3 -16.9°
Maximum altitude 18:07:26 13° 278° (W) 1,776 7.1 -17.2°
Drops below altitude 10° 18:09:21 10° 252° (WSW) 1,950 6.9 -17.5°
Sets 18:12:40 0° 224° (SW) 2,844 7.3 -18.0°
